Cameron, TX

3:02 AM CDT on October 16, 2019 (GMT -0500)
Cameron

Weather History for KT35 - September, 2019

Change the Weather History Date:

Thursday, September 19, 2019

  Actual Average (KTPL) Record (KTPL)
Temperature  
Mean Temperature 83 °F -  
Max Temperature 95 °F 86 °F 98 °F (2016)
Min Temperature 72 °F 64 °F 51 °F (2006)
Cooling Degree Days 18    
Growing Degree Days 33 (Base 50)    
Moisture  
Dew Point 72 °F    
Average Humidity 79    
Maximum Humidity 97    
Minimum Humidity 48    
Precipitation  
Precipitation 0.00 in - - ()
Sea Level Pressure  
Sea Level Pressure 29.86 in    
Wind  
Wind Speed 2 mph (SE)    
Max Wind Speed 17 mph    
Max Gust Speed 25 mph    
Visibility 10 miles    
Events      
Averages and records for this station are not official NWS values.
T = Trace of Precipitation, MM = Missing Value Source: NWS Daily Summary

Daily Weather History Graph

Daily Weather History Graph

Search for Another Location

Airport or City:

Astronomy

Sep. 19, 2019 Rise Set
Actual Time 7:14 AM CDT 7:28 PM CDT
Civil Twilight 6:50 AM CDT 7:52 PM CDT
Nautical Twilight 6:22 AM CDT 8:20 PM CDT
Astronomical Twilight 5:53 AM CDT 8:49 PM CDT
Moon 10:58 PM CDT (9/19) 12:00 PM CDT (9/19)
Length of Visible Light 13h 02m
Length of Day
12h 14m
Waning Gibbous, 74% of the Moon is Illuminated
Sep 19
Waning Gibbous
Sep 21
Last Quarter
Sep 28
New
Oct 5
First Quarter
Oct 13
Full

Hourly Weather History & Observations

Time (CDT) Temp. Heat Index Dew Point Humidity Pressure Visibility Wind Dir Wind Speed Gust Speed Precip Events Conditions
12:15 AM 77.2 °F - 72.5 °F 85% 29.88 in 10.0 mi Calm Calm - N/A   Clear
12:35 AM 76.1 °F - 72.5 °F 89% 29.88 in 10.0 mi Calm Calm - N/A   Clear
12:55 AM 75.4 °F - 72.5 °F 91% 29.88 in 10.0 mi Calm Calm - N/A   Scattered Clouds
1:15 AM 75.4 °F - 72.5 °F 91% 29.88 in 10.0 mi Calm Calm - N/A   Mostly Cloudy
1:35 AM 75.4 °F - 72.1 °F 90% 29.87 in 10.0 mi Calm Calm - N/A   Scattered Clouds
1:55 AM 75.2 °F - 72.3 °F 91% 29.87 in 10.0 mi Calm Calm - N/A   Clear
2:15 AM 74.5 °F - 72.1 °F 92% 29.87 in 10.0 mi Calm Calm - N/A   Clear
2:35 AM 74.5 °F - 72.0 °F 92% 29.87 in 10.0 mi Calm Calm - N/A   Clear
2:55 AM 73.9 °F - 71.8 °F 93% 29.86 in 10.0 mi Calm Calm - N/A   Clear
3:15 AM 73.4 °F - 71.8 °F 95% 29.86 in 10.0 mi Calm Calm - N/A   Clear
3:35 AM 73.2 °F - 71.6 °F 95% 29.86 in 10.0 mi Calm Calm - N/A   Clear
3:55 AM 73.4 °F - 72.0 °F 95% 29.86 in 10.0 mi Calm Calm - N/A   Clear
4:15 AM 72.9 °F - 71.6 °F 96% 29.85 in 10.0 mi Calm Calm - N/A   Clear
4:35 AM 72.5 °F - 71.1 °F 95% 29.85 in 10.0 mi NNW 3.5 mph - N/A   Clear
4:55 AM 72.5 °F - 71.6 °F 97% 29.85 in 10.0 mi NW 3.5 mph - N/A   Clear
5:15 AM 72.5 °F - 71.2 °F 96% 29.85 in 10.0 mi NNW 3.5 mph - N/A   Clear
5:35 AM 72.1 °F - 71.2 °F 97% 29.85 in 10.0 mi Calm Calm - N/A   Clear
5:55 AM 72.7 °F - 71.6 °F 96% 29.85 in 10.0 mi Calm Calm - N/A   Clear
6:15 AM 72.5 °F - 71.2 °F 96% 29.86 in 10.0 mi Calm Calm - N/A   Clear
6:35 AM 72.5 °F - 70.9 °F 95% 29.86 in 10.0 mi Calm Calm - N/A   Clear
6:55 AM 72.3 °F - 70.9 °F 95% 29.87 in 10.0 mi Calm Calm - N/A   Scattered Clouds
7:15 AM 72.5 °F - 70.9 °F 95% 29.88 in 10.0 mi Calm Calm - N/A   Mostly Cloudy
7:35 AM 72.5 °F - 71.1 °F 95% 29.88 in 10.0 mi Calm Calm - N/A   Overcast
7:55 AM 73.2 °F - 71.6 °F 95% 29.88 in 10.0 mi Calm Calm - N/A   Overcast
8:15 AM 73.6 °F - 71.6 °F 93% 29.88 in 10.0 mi Calm Calm - N/A   Mostly Cloudy
8:35 AM 75.2 °F - 71.8 °F 89% 29.88 in 10.0 mi Calm Calm - N/A   Scattered Clouds
8:55 AM 76.6 °F - 72.1 °F 86% 29.88 in 10.0 mi NNW 4.6 mph - N/A   Scattered Clouds
9:15 AM 78.6 °F - 72.1 °F 80% 29.89 in 10.0 mi North 5.8 mph - N/A   Clear
9:35 AM 80.6 °F 84.6 °F 71.8 °F 74% 29.89 in 10.0 mi North 6.9 mph - N/A   Clear
9:55 AM 81.5 °F 85.9 °F 71.6 °F 72% 29.89 in 10.0 mi NNE 3.5 mph - N/A   Mostly Cloudy
10:15 AM 81.9 °F 86.4 °F 71.6 °F 71% 29.90 in 10.0 mi NNE 5.8 mph - N/A   Mostly Cloudy
10:35 AM 82.0 °F 86.5 °F 71.2 °F 70% 29.90 in 10.0 mi NNE 3.5 mph - N/A   Mostly Cloudy
10:55 AM 83.8 °F 89.2 °F 71.8 °F 67% 29.90 in 10.0 mi Calm Calm - N/A   Mostly Cloudy
11:15 AM 83.8 °F 89.2 °F 71.8 °F 67% 29.90 in 10.0 mi Calm Calm - N/A   Overcast
11:35 AM 84.7 °F 90.4 °F 71.6 °F 65% 29.91 in 10.0 mi Calm Calm - N/A   Overcast
11:55 AM 86.9 °F 93.3 °F 72.0 °F 61% 29.90 in 10.0 mi Calm Calm - N/A   Mostly Cloudy
12:15 PM 85.8 °F 91.5 °F 71.6 °F 62% 29.89 in 10.0 mi Calm Calm - N/A   Mostly Cloudy
12:35 PM 86.0 °F 91.8 °F 71.6 °F 62% 29.88 in 10.0 mi Calm Calm - N/A   Scattered Clouds
12:55 PM 89.2 °F 96.9 °F 72.5 °F 58% 29.87 in 10.0 mi SE 4.6 mph - N/A   Mostly Cloudy
1:15 PM 89.6 °F 96.2 °F 71.6 °F 55% 29.85 in 10.0 mi WNW 3.5 mph - N/A   Scattered Clouds
1:35 PM 90.0 °F 96.9 °F 71.6 °F 55% 29.84 in 10.0 mi SW 4.6 mph - N/A   Clear
1:55 PM 91.9 °F 99.5 °F 71.8 °F 52% 29.84 in 10.0 mi West 4.6 mph - N/A   Scattered Clouds
2:15 PM 94.3 °F 102.2 °F 72.1 °F 48% 29.84 in 10.0 mi NW 6.9 mph - N/A   Scattered Clouds
2:35 PM 93.7 °F 101.1 °F 71.2 °F 48% 29.83 in 10.0 mi NW 4.6 mph - N/A   Mostly Cloudy
2:55 PM 93.2 °F 99.9 °F 71.1 °F 48% 29.83 in 10.0 mi NE 4.6 mph - N/A   Mostly Cloudy
3:15 PM 93.0 °F 100.1 °F 71.2 °F 49% 29.82 in 10.0 mi ESE 3.5 mph - N/A   Mostly Cloudy
3:55 PM 91.9 °F 99.0 °F 71.4 °F 51% 29.80 in 10.0 mi East 6.9 mph - N/A   Mostly Cloudy
4:15 PM 88.0 °F 95.1 °F 72.5 °F 60% 29.81 in 10.0 mi ESE 6.9 mph - N/A   Overcast
4:35 PM 88.7 °F 96.2 °F 72.5 °F 59% 29.81 in 10.0 mi SE 4.6 mph - N/A   Mostly Cloudy
4:55 PM 88.0 °F 95.1 °F 72.5 °F 60% 29.80 in 10.0 mi ESE 4.6 mph 17.3 mph N/A   Overcast
5:15 PM 89.1 °F 97.5 °F 73.6 °F 60% 29.80 in 10.0 mi SE 5.8 mph - N/A   Mostly Cloudy
5:35 PM 88.0 °F 96.5 °F 73.8 °F 63% 29.80 in 10.0 mi SE 4.6 mph - N/A   Mostly Cloudy
5:55 PM 85.8 °F 93.8 °F 74.3 °F 68% 29.81 in 10.0 mi SSE 11.5 mph 19.6 mph N/A   Overcast
6:15 PM 83.3 °F 89.6 °F 73.6 °F 72% 29.82 in 10.0 mi South 15.0 mph 23.0 mph N/A   Mostly Cloudy
6:35 PM 82.4 °F 88.2 °F 73.4 °F 74% 29.83 in 10.0 mi South 17.3 mph 25.3 mph N/A   Scattered Clouds
6:55 PM 80.8 °F 85.6 °F 73.2 °F 78% 29.83 in 10.0 mi South 13.8 mph 23.0 mph N/A   Scattered Clouds
7:15 PM 79.7 °F - 73.4 °F 81% 29.82 in 10.0 mi South 13.8 mph 19.6 mph N/A   Clear
7:35 PM 79.0 °F - 73.8 °F 84% 29.83 in 10.0 mi SE 8.1 mph - N/A   Clear
7:55 PM 78.8 °F - 73.6 °F 84% 29.84 in 10.0 mi SSE 8.1 mph - N/A   Clear
8:15 PM 78.1 °F - 73.4 °F 85% 29.85 in 10.0 mi SSE 10.4 mph - N/A   Clear
8:55 PM 77.4 °F - 72.7 °F 85% 29.86 in 10.0 mi SSE 6.9 mph - N/A   Scattered Clouds
9:15 PM 77.0 °F - 72.0 °F 84% 29.87 in 10.0 mi SSE 9.2 mph - N/A   Clear
9:35 PM 77.0 °F - 72.5 °F 86% 29.87 in 10.0 mi SSE 8.1 mph - N/A   Mostly Cloudy
9:55 PM 77.0 °F - 72.9 °F 87% 29.87 in 10.0 mi SSE 8.1 mph - N/A   Overcast
10:15 PM 76.8 °F - 72.9 °F 88% 29.88 in 10.0 mi SSE 6.9 mph - N/A   Mostly Cloudy
10:35 PM 76.6 °F - 72.9 °F 88% 29.89 in 10.0 mi SSE 9.2 mph - N/A   Mostly Cloudy
10:55 PM 76.6 °F - 72.9 °F 88% 29.89 in 10.0 mi SSE 6.9 mph - N/A   Overcast
11:15 PM 77.0 °F - 73.0 °F 88% 29.91 in 10.0 mi SE 5.8 mph - N/A   Overcast
11:35 PM 77.0 °F - 73.0 °F 88% 29.91 in 10.0 mi SSE 6.9 mph - N/A   Overcast
11:55 PM 77.0 °F - 73.0 °F 88% 29.91 in 10.0 mi SE 6.9 mph - N/A   Overcast